{"data":{"norad_id":68397,"epoch":"2026-09-20T03:18:39.870144Z","epoch_age_seconds":78439,"freshness":"FRESH","line1":"1 68397U 26063T   26263.13796146  .00016319  00000+0  50653-3 0  9997","line2":"2 68397  97.2839  44.0106 0000565 247.9588 112.1595 15.33457828 27691","mean_motion":15.33457828,"eccentricity":5.65e-5,"inclination_deg":97.2839,"raan_deg":44.0106,"arg_perigee_deg":247.9588,"mean_anomaly_deg":112.1595,"bstar":0.00050653,"rev_number":2769,"period_min":93.905419093142,"perigee_km":465.11834186804,"apogee_km":465.8916734149,"semimajor_km":6843.6420076415,"source":"CELESTRAK","updated_at":"2026-09-20T09:00:43.897667Z"}}